Погода в Филиппово

Россия / Республика Коми     65°26′14″N   51°06′09″E
темп.,
°C
ветер,
м/с
пор.,
м/с
влажн.,
%
обл.,
%
осадки,
мм/ч
давл.,
гПа
погр.,
м
16 мая, вс
вс1600:00+6в267930 0.0 1015253
03:00+5в378282 0.0 1015230
06:00+9в3576100 0.0 1013378
09:00+12в4565100 0.0 1011649
12:00+10в4776100 0.5 1010438
15:00+9св41091100 3.4 1009444
18:00+8св41092100 1.4 1008514
21:00+7всв3992100 2.9 1008476
17 мая, пн
пн1700:00+6св4993100 1.4 1008459
03:00+6св4995100 6.7 1008441
06:00+5ссв41193100 2.9 1010476
09:00+5ссв4990100 5.6 1012447
12:00+9ссв466659 0.3 1015745
15:00+12ссв34535 0.3 10171029
18:00+12ссв23472 0.0 10181061
21:00+8в11615 0.0 102012
18 мая, вт
вт1800:00+5в115670 0.0 102210
03:00+5юв1158100 0.0 102310
06:00+9ююв23565 0.0 1023249
09:00+14ю23535 0.0 1023768
12:00+18ююз344728 0.0 10221449
15:00+19юз3445100 0.0 10211771
18:00+18ююз2553100 0.0 1021289
21:00+14ю277031 0.0 1021123
19 мая, ср
ср1900:00+12ю31070100 0.0 1020213
03:00+12ю31264100 0.0 1020293
06:00+14ю3115987 0.0 1018381
09:00+20ююз485097 0.0 1016677
12:00+25юз574048 0.0 10141528
15:00+27юз593437 0.0 10132579
18:00+26юз493830 0.0 1011638
21:00+20ююз395626 0.0 1011158
20 мая, чт
чт2000:00+18юз3136141 0.0 1010283
03:00+18юз4145822 0.0 1010349
06:00+22зюз412515 0.0 1011588
09:00+26зюз483976 0.0 1011879
12:00+29зюз59285 0.0 10102947
15:00+27юз48258 0.0 10101297
18:00+27юз38280 0.0 1009609
21:00+21ююз36464 0.0 1009105